Lincoln Fly Road

*Note: All times are displayed in the local standard time of the station location.
**Rain - Equipment is designed to accurately record liquid precipitation; under conditions when precipitation is not in liquid form, the data displayed may not properly reflect rainfall values.

Date Max Temp
(°C)
Min Temp
(°C)
Avg Temp
(°C)
Rain (mm) Avg RH (%)
Fri, Feb 15, 2019 4.2 -5.2 0.1 4.0 69.0
Thu, Feb 14, 2019 4.0 -5.4 -1.4 9.4 66.8
Wed, Feb 13, 2019 0.0 -5.4 -3.4 0.0 75.8
Tue, Feb 12, 2019 1.5 -6.0 -2.9 0.2 83.4
Mon, Feb 11, 2019 -2.8 -5.4 -4.2 0.0 69.2
Sun, Feb 10, 2019 -3.4 -10.0 -6.5 0.0 66.4
Sat, Feb 09, 2019 -5.1 -11.0 -7.8 0.0 60.4
DateTime Avg Temp (°C) Rain (mm) RH (%)
Sat, Feb 16, 2019 16:00 -2.5 0.0 51.0
Sat, Feb 16, 2019 15:00 -2.9 0.0 54.4
Sat, Feb 16, 2019 14:00 -3.1 0.0 55.0
Sat, Feb 16, 2019 13:00 -3.6 0.0 56.5
Sat, Feb 16, 2019 12:00 -4.1 0.0 57.6
Sat, Feb 16, 2019 11:00 -4.4 0.0 60.6
Sat, Feb 16, 2019 10:00 -4.6 0.0 60.6
Sat, Feb 16, 2019 09:00 -4.7 0.0 60.1
Sat, Feb 16, 2019 08:00 -5.3 0.0 63.5
Sat, Feb 16, 2019 07:00 -4.9 0.0 67.5
Sat, Feb 16, 2019 06:00 -4.1 0.0 65.4
Sat, Feb 16, 2019 05:00 -4.3 0.0 75.6
Sat, Feb 16, 2019 04:00 -4.6 0.0 74.7
Sat, Feb 16, 2019 03:00 -4.7 0.0 74.2
Sat, Feb 16, 2019 02:00 -4.6 0.0 70.8
Sat, Feb 16, 2019 01:00 -4.8 0.0 68.9
Sat, Feb 16, 2019 00:00 -4.9 0.0 67.0
Fri, Feb 15, 2019 23:00 -5.2 0.0 65.0
Fri, Feb 15, 2019 22:00 -5.0 0.0 64.2
Fri, Feb 15, 2019 21:00 -4.4 0.0 62.4
Fri, Feb 15, 2019 20:00 -3.4 0.0 65.1
Fri, Feb 15, 2019 19:00 -3.0 0.0 62.5
Fri, Feb 15, 2019 18:00 -2.4 0.0 61.1
Fri, Feb 15, 2019 17:00 -1.5 0.0 59.3
Fri, Feb 15, 2019 16:00 -1.1 0.0 60.8
Fri, Feb 15, 2019 15:00 -0.9 0.0 68.6
Fri, Feb 15, 2019 14:00 0.3 0.0 65.0
Fri, Feb 15, 2019 13:00 1.3 0.0 57.0
Fri, Feb 15, 2019 12:00 1.6 0.0 60.4
Fri, Feb 15, 2019 11:00 2.1 0.0 68.4
Fri, Feb 15, 2019 10:00 3.2 0.0 76.1
Fri, Feb 15, 2019 09:00 3.1 0.0 83.4
Fri, Feb 15, 2019 08:00 3.3 0.0 83.9
Fri, Feb 15, 2019 07:00 3.2 0.2 85.2
Fri, Feb 15, 2019 06:00 2.9 1.2 86.5
Fri, Feb 15, 2019 05:00 3.1 0.6 83.5
Fri, Feb 15, 2019 04:00 3.2 1.0 76.6
Fri, Feb 15, 2019 03:00 3.1 0.6 67.0
Fri, Feb 15, 2019 02:00 2.1 0.2 63.9
Fri, Feb 15, 2019 01:00 2.7 0.2 62.6
Fri, Feb 15, 2019 00:00 2.3 0.2 60.9
Thu, Feb 14, 2019 23:00 2.3 0.0 60.7
Thu, Feb 14, 2019 22:00 1.4 0.0 62.9
Thu, Feb 14, 2019 21:00 0.6 0.0 64.7
Thu, Feb 14, 2019 20:00 -0.5 0.0 66.3
Thu, Feb 14, 2019 19:00 -0.9 0.0 68.0
Thu, Feb 14, 2019 18:00 -0.4 0.2 68.5
Thu, Feb 14, 2019 17:00 0.5 0.0 63.2


asterix Register now to access more data! asterix